User: anonymous   Login
Location: Unspecified
(0.0000°N, 0.0000°E)
Time: 11:18:42
(UTC+02:00)
Language:

ASC 2 Rocket - Orbit

View from above orbital plane
View from above orbital plane
View from above satellite
View from above satellite

Ground track
Ground track

The orbit data is extracted from the following two-line orbital elements,

1 21228U 91028B   17083.47277630 +.00000177 +00000-0 +16745-4 0  9992
2 21228 023.9903 093.8616 1143322 083.3297 061.9426 12.53312710187148
Epoch (UTC): 24 March 2017 11:20:47
Eccentricity: 0.1143322
inclination: 23.9903°
perigee height: 555 km
apogee height: 2346 km
right ascension of ascending node: 93.8616°
argument of perigee: 83.3297°
revolutions per day: 12.53312710
mean anomaly at epoch: 61.9426°
orbit number at epoch: 18714

The dashed part of the orbit path shows where the satellite is in the earth's shadow,  

DLR